TimeEST,TemperatureF,Dew PointF,Humidity,Sea Level PressureIn,VisibilityMPH,Wind Direction,Wind SpeedMPH,Gust SpeedMPH,PrecipitationIn,Events,Conditions,WindDirDegrees,DateUTC
12:15 AM,16.7,2.8,55,-9999,10.0,West,9.2,-,N/A,,Clear,260,2013-02-02 05:15:00
12:35 AM,17.1,1.9,52,-9999,10.0,West,4.6,-,N/A,,Clear,270,2013-02-02 05:35:00
12:55 AM,17.6,0.7,48,-9999,10.0,Calm,Calm,-,N/A,,Clear,0,2013-02-02 05:55:00
1:15 AM,17.4,1.2,49,-9999,10.0,Calm,Calm,-,N/A,,Clear,0,2013-02-02 06:15:00
1:35 AM,17.6,1.0,48,-9999,10.0,SW,3.5,-,N/A,,Clear,230,2013-02-02 06:35:00
1:55 AM,17.4,2.3,52,-9999,10.0,SW,3.5,-,N/A,,Clear,220,2013-02-02 06:55:00
2:15 AM,16.9,2.7,54,-9999,10.0,SW,3.5,-,N/A,,Clear,230,2013-02-02 07:15:00
2:55 AM,15.4,1.4,54,-9999,10.0,Calm,Calm,-,N/A,,Clear,0,2013-02-02 07:55:00
3:15 AM,14.9,2.1,57,-9999,10.0,Calm,Calm,-,N/A,,Clear,0,2013-02-02 08:15:00
3:35 AM,15.4,1.9,55,-9999,10.0,Calm,Calm,-,N/A,,Clear,0,2013-02-02 08:35:00
3:55 AM,15.4,1.0,53,-9999,10.0,Calm,Calm,-,N/A,,Clear,0,2013-02-02 08:55:00
4:15 AM,15.8,1.0,52,-9999,10.0,Calm,Calm,-,N/A,,Clear,0,2013-02-02 09:15:00
4:35 AM,15.8,0.5,51,-9999,10.0,Calm,Calm,-,N/A,,Clear,0,2013-02-02 09:35:00
4:55 AM,16.0,-0.0,49,-9999,10.0,Calm,Calm,-,N/A,,Clear,0,2013-02-02 09:55:00
5:15 AM,15.3,1.0,53,-9999,10.0,Calm,Calm,-,N/A,,Clear,0,2013-02-02 10:15:00
5:35 AM,14.9,1.6,56,-9999,10.0,Calm,Calm,-,N/A,,Clear,0,2013-02-02 10:35:00
5:55 AM,14.4,2.1,58,-9999,10.0,Calm,Calm,-,N/A,,Clear,0,2013-02-02 10:55:00
6:15 AM,15.4,1.4,54,-9999,10.0,Calm,Calm,-,N/A,,Clear,0,2013-02-02 11:15:00
6:35 AM,14.9,1.4,55,-9999,10.0,Calm,Calm,-,N/A,,Clear,0,2013-02-02 11:35:00
7:15 AM,15.1,1.4,55,-9999,10.0,Calm,Calm,-,N/A,,Clear,0,2013-02-02 12:15:00
7:35 AM,15.6,1.0,53,-9999,10.0,Calm,Calm,-,N/A,,Clear,0,2013-02-02 12:35:00
7:55 AM,15.1,1.6,55,-9999,10.0,Calm,Calm,-,N/A,,Clear,0,2013-02-02 12:55:00
8:15 AM,15.6,2.7,57,-9999,10.0,Calm,Calm,-,N/A,,Clear,0,2013-02-02 13:15:00
8:35 AM,16.5,4.1,58,-9999,10.0,Calm,Calm,-,N/A,,Scattered Clouds,0,2013-02-02 13:35:00
8:55 AM,17.2,5.4,60,-9999,10.0,SSE,3.5,-,N/A,,Mostly Cloudy,150,2013-02-02 13:55:00
9:15 AM,17.8,6.1,60,-9999,10.0,Calm,Calm,-,N/A,,Mostly Cloudy,0,2013-02-02 14:15:00
9:35 AM,18.7,7.3,61,-9999,10.0,Calm,Calm,-,N/A,,Overcast,0,2013-02-02 14:35:00
10:15 AM,20.1,7.5,58,-9999,10.0,SSE,3.5,-,N/A,,Overcast,150,2013-02-02 15:15:00
10:35 AM,21.7,8.8,57,-9999,10.0,SE,3.5,-,N/A,,Mostly Cloudy,130,2013-02-02 15:35:00
10:55 AM,23.4,9.5,55,-9999,10.0,SE,5.8,-,N/A,,Scattered Clouds,140,2013-02-02 15:55:00
11:35 AM,28.0,9.7,46,-9999,10.0,South,5.8,-,N/A,,Clear,170,2013-02-02 16:35:00
11:55 AM,29.5,11.7,48,-9999,10.0,SSE,5.8,-,N/A,,Scattered Clouds,160,2013-02-02 16:55:00
12:15 PM,29.5,11.3,47,-9999,10.0,SE,5.8,-,N/A,,Mostly Cloudy,130,2013-02-02 17:15:00
12:35 PM,30.0,11.1,45,-9999,10.0,ESE,3.5,-,N/A,,Overcast,110,2013-02-02 17:35:00
12:55 PM,30.6,11.7,45,-9999,10.0,ESE,5.8,-,N/A,,Overcast,120,2013-02-02 17:55:00
1:15 PM,30.4,11.1,45,-9999,10.0,ESE,5.8,-,N/A,,Overcast,120,2013-02-02 18:15:00
1:35 PM,30.2,12.0,47,-9999,10.0,ESE,4.6,-,N/A,,Overcast,110,2013-02-02 18:35:00
1:55 PM,30.9,16.9,56,-9999,10.0,SSE,3.5,-,N/A,,Overcast,160,2013-02-02 18:55:00
2:15 PM,30.6,13.8,50,-9999,10.0,Calm,Calm,-,N/A,,Overcast,0,2013-02-02 19:15:00
2:35 PM,29.3,12.9,51,-9999,10.0,SE,5.8,-,N/A,,Overcast,140,2013-02-02 19:35:00
2:55 PM,28.8,15.1,57,-9999,7.0,SSE,5.8,-,N/A,Snow,Light Snow,150,2013-02-02 19:55:00
3:35 PM,28.8,20.3,71,-9999,1.8,SSE,4.6,-,N/A,Snow,Light Snow,150,2013-02-02 20:35:00
4:15 PM,27.0,21.7,81,-9999,1.5,SSE,4.6,-,N/A,Snow,Light Snow,150,2013-02-02 21:15:00
4:35 PM,26.6,22.6,85,-9999,0.8,South,4.6,-,N/A,Snow,Light Snow,170,2013-02-02 21:35:00
4:55 PM,26.6,23.4,88,-9999,1.0,Calm,Calm,-,N/A,Snow,Light Snow,0,2013-02-02 21:55:00
5:15 PM,26.6,23.5,88,-9999,1.8,SSE,4.6,-,N/A,Snow,Light Snow,160,2013-02-02 22:15:00
5:35 PM,26.6,23.5,88,-9999,0.8,South,3.5,-,N/A,Snow,Light Snow,170,2013-02-02 22:35:00
5:55 PM,26.4,24.1,91,-9999,1.0,South,4.6,-,N/A,Snow,Light Snow,170,2013-02-02 22:55:00
6:15 PM,26.4,24.3,92,-9999,1.2,SSE,3.5,-,N/A,Snow,Light Snow,160,2013-02-02 23:15:00
6:55 PM,26.4,24.3,92,-9999,2.0,SSE,3.5,-,N/A,Snow,Light Snow,160,2013-02-02 23:55:00
7:15 PM,26.2,24.1,92,-9999,1.2,Calm,Calm,-,N/A,Snow,Snow,0,2013-02-03 00:15:00
7:35 PM,25.9,24.1,93,-9999,1.0,Calm,Calm,-,N/A,Snow,Snow,0,2013-02-03 00:35:00
7:55 PM,25.9,24.3,94,-9999,1.0,Calm,Calm,-,N/A,Snow,Snow,0,2013-02-03 00:55:00
8:35 PM,25.7,24.4,95,-9999,0.8,Calm,Calm,-,0.01,Snow,Snow,0,2013-02-03 01:35:00
8:55 PM,25.7,24.3,94,-9999,1.0,Calm,Calm,-,0.01,Snow,Snow,0,2013-02-03 01:55:00
9:15 PM,25.7,24.6,96,-9999,1.0,Calm,Calm,-,0.01,Snow,Snow,0,2013-02-03 02:15:00
9:35 PM,27.3,25.9,94,-9999,1.2,Calm,Calm,-,0.01,Snow,Snow,0,2013-02-03 02:35:00
9:55 PM,29.3,27.1,92,-9999,1.0,West,17.3,20.7,0.01,Snow,Light Snow,270,2013-02-03 02:55:00
10:15 PM,29.8,25.7,85,-9999,0.8,West,15.0,29.9,N/A,Snow,Light Snow,270,2013-02-03 03:15:00
10:35 PM,29.3,26.2,88,-9999,1.0,West,13.8,21.9,N/A,Snow,Light Snow,270,2013-02-03 03:35:00
10:55 PM,29.3,25.3,85,-9999,1.8,WSW,6.9,21.9,N/A,Snow,Light Snow,240,2013-02-03 03:55:00
11:15 PM,29.3,25.5,86,-9999,4.0,West,12.7,21.9,N/A,Snow,Light Snow,270,2013-02-03 04:15:00
11:35 PM,29.3,25.7,86,-9999,2.5,West,18.4,26.5,N/A,,Overcast,270,2013-02-03 04:35:00
11:55 PM,29.3,25.7,86,-9999,7.0,West,8.1,18.4,N/A,Snow,Light Snow,260,2013-02-03 04:55:00